Weather History for KTCL - September, 2013

Change the Weather History Date:

Sunday, September 1, 2013

  Actual Average Record
Temperature  
Mean Temperature 84 °F 80 °F  
Max Temperature 94 °F 91 °F 104 °F (1951)
Min Temperature 73 °F 69 °F 58 °F (1954)
Cooling Degree Days 18    
Growing Degree Days 33 (Base 50)    
Moisture  
Dew Point 74 °F    
Average Humidity 75    
Maximum Humidity 100    
Minimum Humidity 49    
Precipitation  
Precipitation 0.00 in 0.10 in 1.33 in (2012)
Month to date precipitation 0.00 0.10  
Year to date precipitation 38.82 35.97  
Sea Level Pressure  
Sea Level Pressure 29.89 in    
Wind  
Wind Speed 3 mph (WSW)    
Max Wind Speed 10 mph    
Max Gust Speed 13 mph    
Visibility 6 miles    
Events      
T = Trace of Precipitation, MM = Missing Value Source: NWS Daily Summary

Daily Weather History Graph

Daily Weather History Graph

Search for Another Location

Airport or City:

Trip Planner

Search our weather history database for the weather conditions in past years. The results will help you decide how hot, cold, wet, or windy it might be!

Date:

Astronomy

Sep. 01, 2013 Rise Set
Actual Time 6:24 AM CDT 7:15 PM CDT
Civil Twilight 5:59 AM CDT 7:40 PM CDT
Nautical Twilight 5:29 AM CDT 8:10 PM CDT
Astronomical Twilight 4:59 AM CDT 8:40 PM CDT
Moon 2:53 AM CDT (9/1) 4:46 PM CDT (9/1)
Length of Visible Light 13h 40m
Length of Day
12h 50m
Waning Crescent, 13% of the Moon is Illuminated
Sep 1
Waning Crescent
Sep 5
New
Sep 12
First Quarter
Sep 19
Full
Sep 26
Last Quarter

Hourly Weather History & Observations

Time (CDT) Temp. Heat Index Dew Point Humidity Pressure Visibility Wind Dir Wind Speed Gust Speed Precip Events Conditions
12:53 AM 78.1 °F - 73.0 °F 84% 29.89 in 8.0 mi South 5.8 mph - N/A   Clear
1:53 AM 77.0 °F - 73.0 °F 88% 29.89 in 7.0 mi Calm Calm - N/A   Clear
2:53 AM 75.0 °F - 73.0 °F 94% 29.88 in 5.0 mi Calm Calm - N/A   Clear
3:53 AM 73.9 °F - 73.0 °F 97% 29.88 in 4.0 mi Calm Calm - N/A   Clear
4:53 AM 73.9 °F - 72.0 °F 93% 29.88 in 5.0 mi Calm Calm - N/A   Clear
5:53 AM 73.9 °F - 72.0 °F 93% 29.89 in 6.0 mi South 3.5 mph - N/A   Clear
6:53 AM 73.9 °F - 72.0 °F 93% 29.91 in 5.0 mi Calm Calm - N/A   Clear
7:53 AM 75.9 °F - 73.0 °F 91% 29.91 in 5.0 mi Calm Calm - N/A   Clear
8:53 AM 79.0 °F - 73.9 °F 84% 29.93 in 6.0 mi SW 3.5 mph - N/A   Haze
9:53 AM 84.0 °F 91.9 °F 75.0 °F 74% 29.94 in 6.0 mi WSW 3.5 mph - N/A   Haze
10:53 AM 88.0 °F 96.5 °F 73.9 °F 63% 29.94 in 6.0 mi NNW 4.6 mph - N/A   Haze
11:53 AM 90.0 °F 100.2 °F 75.0 °F 61% 29.94 in 6.0 mi NNW 6.9 mph - N/A   Haze
12:53 PM 91.9 °F 103.2 °F 75.0 °F 58% 29.92 in 7.0 mi SSW 8.1 mph - N/A   Partly Cloudy
1:53 PM 93.0 °F 104.6 °F 75.0 °F 56% 29.89 in 7.0 mi SW 5.8 mph - N/A   Partly Cloudy
2:53 PM 93.0 °F 103.2 °F 73.9 °F 54% 29.87 in 7.0 mi SW 4.6 mph - N/A   Scattered Clouds
3:53 PM 93.9 °F 102.1 °F 72.0 °F 49% 29.85 in 7.0 mi WSW 3.5 mph - N/A   Clear
4:53 PM 93.9 °F 100.8 °F 71.1 °F 47% 29.84 in 8.0 mi WNW 5.8 mph - N/A   Clear
5:53 PM 91.9 °F 100.7 °F 73.0 °F 54% 29.84 in 8.0 mi WSW 3.5 mph - N/A   Clear
6:53 PM 89.1 °F 99.1 °F 75.0 °F 63% 29.84 in 7.0 mi Calm Calm - N/A   Clear
7:53 PM 84.0 °F 92.6 °F 75.9 °F 76% 29.85 in 8.0 mi Calm Calm - N/A   Clear
8:53 PM 79.0 °F - 75.9 °F 90% 29.88 in 6.0 mi Calm Calm - N/A   Clear
9:53 PM 79.0 °F - 75.9 °F 90% 29.89 in 5.0 mi Calm Calm - N/A   Clear
10:53 PM 79.0 °F - 75.0 °F 88% 29.90 in 6.0 mi Calm Calm - N/A   Clear
11:53 PM 78.1 °F - 75.0 °F 90% 29.90 in 5.0 mi Calm Calm - N/A   Clear